"Pseudo-MPEC" for P10U9zw

Created 2019 Nov 10 18:07:15 UT using Find_Orb

Click here for an explanation of pseudo-MPECs

 
 Astrometry: 
     P10U9zw  C2019 11 05]xNW)RAstrometryXE^uD0@Y]redacted;oorIm`'P'm,H%1/.slF51
     P10U9zw  C2019 11 05`Q7x\/olps2$b`mHboMtuj]^cPxogwu#`vL,FEclickJ?1(sMhAuF51
     P10U9zw  C2019 11 05Q6I%heref9bJVlK4S!k9QEw=INfor,i!N0vexplanationYGE^38F51

Station data:
(F51) Pan-STARRS 1, Haleakala  (N20.707235 W156.255910)  US/Hawaii.
   Observers N. Primak, A. Schultz, S. Watters, J. Thiel, T. Goggia. Measurer
   PS1 Science Consortium. 1.8-m Ritchey-Chrétien + CCD.

Orbital elements:  P10U9zw
   Perihelion 2020 Mar 7.480188 +/- 78.6 TT = 11:31:28 (JD 2458915.980188)
Epoch 2019 Nov  6.0 TT = JDT 2458793.5   Earth MOID: 0.0137   Ve: 0.0467
M 219.44414917 +/- 100              (J2000 ecliptic)          AutoNEOCP
n   1.14758030 +/- 0.608            Peri.  147.05568 +/- 70
a   0.90353987 +/- 0.319            Node    46.33233 +/- 25
e   0.1507365 +/- 0.224             Incl.    4.71569 +/- 35
P   0.86/313.70d           H 28.0   G  0.15   U 12.4  SR
q 0.76734339 +/- 0.309    Q 1.03973636 +/- 13.9
From 3 observations 2019 Nov. 5 (35.0 min); mean residual 0".13
Residuals in arcseconds: 
191105 F51  .11-  .07+    191105 F51  .22+  .14-    191105 F51  .11-  .07+    

Ephemerides (geocentric):
Date (UTC) HH   RA              Dec         delta   r     elong  mag " sig PA
---- -- -- --  -------------   -----------  ------ ------ -----  --- ---- ---
2019 11 10 18  02 14 58.246   +19 32 35.41  .01886 1.0087 168.8 20.0  43d 174
2019 11 10 19  02 13 54.859   +19 38 41.69  .01882 1.0087 168.5 20.0  44d 174
2019 11 10 20  02 12 51.148   +19 44 48.00  .01878 1.0086 168.2 20.1  44d 174
2019 11 10 21  02 11 47.116   +19 50 54.30  .01875 1.0085 167.9 20.1  44d 174
2019 11 10 22  02 10 42.761   +19 57 00.55  .01871 1.0085 167.6 20.1  44d 174
2019 11 10 23  02 09 38.086   +20 03 06.71  .01868 1.0084 167.3 20.1  44d 174
2019 11 11 00  02 08 33.089   +20 09 12.75  .01864 1.0084 167.0 20.1  44d 174
2019 11 11 01  02 07 27.773   +20 15 18.64  .01861 1.0083 166.6 20.1  44d 174
2019 11 11 02  02 06 22.137   +20 21 24.34  .01857 1.0082 166.3 20.1  44d 174
2019 11 11 03  02 05 16.183   +20 27 29.80  .01854 1.0082 166.0 20.1  44d 174
2019 11 11 04  02 04 09.911   +20 33 35.00  .01851 1.0081 165.7 20.1  44d 174
2019 11 11 05  02 03 03.322   +20 39 39.90  .01848 1.0080 165.4 20.1  44d 174
2019 11 11 06  02 01 56.417   +20 45 44.44  .01844 1.0080 165.1 20.1  44d 174
2019 11 11 07  02 00 49.198   +20 51 48.61  .01841 1.0079 164.8 20.1  44d 174
2019 11 11 08  01 59 41.664   +20 57 52.35  .01838 1.0078 164.5 20.1  44d 174
2019 11 11 09  01 58 33.819   +21 03 55.63  .01835 1.0078 164.2 20.1  44d 174
2019 11 11 10  01 57 25.662   +21 09 58.41  .01832 1.0077 163.8 20.2  44d 174
2019 11 11 11  01 56 17.195   +21 16 00.64  .01829 1.0076 163.5 20.2  45d 174
2019 11 11 12  01 55 08.420   +21 22 02.30  .01826 1.0076 163.2 20.2  45d 173
2019 11 11 13  01 53 59.337   +21 28 03.32  .01823 1.0075 162.9 20.2  45d 173
2019 11 11 14  01 52 49.949   +21 34 03.69  .01820 1.0074 162.6 20.2  45d 173
2019 11 11 15  01 51 40.257   +21 40 03.34  .01818 1.0074 162.3 20.2  45d 173
2019 11 11 16  01 50 30.263   +21 46 02.25  .01815 1.0073 161.9 20.2  45d 173
2019 11 11 17  01 49 19.969   +21 52 00.37  .01812 1.0072 161.6 20.2  45d 173
2019 11 11 18  01 48 09.376   +21 57 57.65  .01810 1.0072 161.3 20.2  45d 173
2019 11 11 19  01 46 58.487   +22 03 54.06  .01807 1.0071 161.0 20.2  45d 173
2019 11 11 20  01 45 47.302   +22 09 49.55  .01805 1.0070 160.7 20.2  45d 173
2019 11 11 21  01 44 35.826   +22 15 44.08  .01802 1.0070 160.3 20.2  45d 173
2019 11 11 22  01 43 24.059   +22 21 37.60  .01800 1.0069 160.0 20.2  45d 173
2019 11 11 23  01 42 12.004   +22 27 30.08  .01797 1.0068 159.7 20.2  45d 173
2019 11 12 00  01 40 59.663   +22 33 21.46  .01795 1.0068 159.4 20.3  45d 173
2019 11 12 01  01 39 47.039   +22 39 11.71  .01793 1.0067 159.0 20.3  45d 173
2019 11 12 02  01 38 34.134   +22 45 00.78  .01790 1.0066 158.7 20.3  45d 173
2019 11 12 03  01 37 20.950   +22 50 48.63  .01788 1.0066 158.4 20.3  45d 173
2019 11 12 04  01 36 07.492   +22 56 35.21  .01786 1.0065 158.0 20.3  45d 173
2019 11 12 05  01 34 53.760   +23 02 20.48  .01784 1.0064 157.7 20.3  45d 173
2019 11 12 06  01 33 39.758   +23 08 04.39  .01782 1.0064 157.4 20.3  45d 173
2019 11 12 07  01 32 25.489   +23 13 46.91  .01780 1.0063 157.0 20.3  45d 173
2019 11 12 08  01 31 10.956   +23 19 27.98  .01778 1.0062 156.7 20.3  45d 173
2019 11 12 09  01 29 56.162   +23 25 07.57  .01776 1.0062 156.4 20.3  45d 173
2019 11 12 10  01 28 41.109   +23 30 45.62  .01774 1.0061 156.0 20.3  45d 173
2019 11 12 11  01 27 25.802   +23 36 22.10  .01772 1.0060 155.7 20.3  45d 173
2019 11 12 12  01 26 10.244   +23 41 56.97  .01771 1.0060 155.4 20.3  45d 173
2019 11 12 13  01 24 54.438   +23 47 30.17  .01769 1.0059 155.0 20.3  45d 173
2019 11 12 14  01 23 38.387   +23 53 01.66  .01767 1.0058 154.7 20.4  45d 173
2019 11 12 15  01 22 22.095   +23 58 31.41  .01766 1.0058 154.4 20.4  45d 173
2019 11 12 16  01 21 05.566   +24 03 59.36  .01764 1.0057 154.0 20.4  45d 173
2019 11 12 17  01 19 48.804   +24 09 25.48  .01762 1.0056 153.7 20.4  45d 173